Погода в Пааме

Вануату     16°28′34″S   168°14′11″E
темп.,
°C
ветер,
м/с
пор.,
м/с
влажн.,
%
обл.,
%
осадки,
мм/ч
давл.,
гПа
погр.,
м
1 марта, пн
пн123:00+28юв5573100 0.1 1007959
02:00+27юв447199 0.1 1005961
05:00+27ююв447097 0.1 1005912
08:00+28юв5570100 0.0 1007982
11:00+28ююв4470100 0.0 1006955
14:00+28ююв446899 0.0 1005899
17:00+28юв336799 0.0 10041054
20:00+28юв3368100 0.0 1007868
2 марта, вт
вт223:00+28вюв216775 0.1 1007640
02:00+27ссз227051 0.0 1006374
05:00+27юз126762 0.0 1005592
08:00+28вюв226540 0.0 1008929
11:00+28вюв436654 0.0 1006793
14:00+28всв666811 0.0 1005801
17:00+28всв677129 0.0 1004747
20:00+28всв557666 0.3 1007642
3 марта, ср
ср323:00+28с797983 5.1 1007753
02:00+28ссв91379100 4.4 10051049
05:00+29ссв91178100 5.4 1005975
08:00+29ссв81079100 2.3 1007888
11:00+29ссв91179100 2.5 1006951
14:00+29с91278100 0.2 10041007
17:00+29с91179100 0.4 1004932
20:00+28ссз7980100 4.8 1006686
4 марта, чт
чт423:00+28ссз6877100 11.2 1007693
02:00+28с6777100 3.8 1005615
05:00+28с4577100 6.7 1005496
08:00+28с7877100 4.3 1007813
11:00+28с81079100 10.1 1007786
14:00+27ссз101487100 24.8 10041038
17:00+28с61076100 27.6 10041039
20:00+29с81176100 0.3 10051076
5 марта, пт
пт523:00+28с587999 2.4 1005793
02:00+28ссз71078100 3.8 1003967
05:00+28с101480100 7.1 10021177
08:00+28ссз91579100 3.4 10041261
11:00+28с121881100 6.8 10031329
14:00+28ссз81479100 2.5 10011190
17:00+28ссз101679100 4.0 10011237
20:00+28с101482100 9.3 10021182